EW0259 Weather Reports


time (UTC)temp
F
wind
direction
speed
knots
gust
knots
rain 1hr
in
rain 24hr
in
rain mn
in
humidity
%
barometer
mb
20260903191739 62 117 0.9 3.5 0.00 0.37 0.07 70 1010.8
20260903191224 62 16 1.7 3.5 0.00 0.37 0.07 69 1010.9
20260903190728 62 237 0.9 4.3 0.00 0.37 0.07 70 1010.9
20260903190232 62 327 1.7 4.3 0.00 0.37 0.07 70 1010.8
20260903185736 62 165 0.0 2.6 0.00 0.37 0.07 71 1010.8
20260903185306 62 262 0.0 2.6 0.00 0.37 0.07 72 1010.7
20260903184734 62 153 0.9 2.6 0.00 0.37 0.07 72 1010.8
20260903184259 61 97 0.9 1.7 0.00 0.37 0.07 80 1010.9
20260903183811 61 84 0.0 1.7 0.00 0.37 0.07 77 1010.8
20260903183740 61 84 0.0 1.7 0.00 0.37 0.07 77 1010.8
20260903183223 61 111 0.0 2.6 0.00 0.37 0.07 81 1010.7
20260903182727 60 117 0.9 2.6 0.00 0.37 0.07 81 1010.7
20260903182232 60 99 0.9 1.7 0.00 0.37 0.07 79 1010.7
20260903181755 60 101 0.0 2.6 0.00 0.37 0.07 81 1010.6
20260903181228 60 158 0.9 2.6 0.00 0.37 0.07 81 1010.8
20260903180733 60 148 0.0 2.6 0.00 0.37 0.07 85 1010.7
20260903180241 59 148 0.0 2.6 0.00 0.37 0.07 85 1010.7
20260903175726 59 190 0.0 1.7 0.00 0.37 0.07 85 1010.7
20260903175312 59 261 0.0 1.7 0.00 0.37 0.07 85 1010.8
20260903174724 59 183 0.0 1.7 0.00 0.37 0.07 85 1010.6
20260903174309 59 165 0.9 1.7 0.00 0.37 0.07 85 1010.6
20260903173742 59 173 0.0 1.7 0.00 0.37 0.07 85 1010.6
20260903173226 59 123 0.9 5.2 0.00 0.37 0.07 86 1010.5
20260903172731 59 177 0.9 5.2 0.00 0.37 0.07 86 1010.5
20260903172256 59 145 0.9 3.5 0.00 0.37 0.07 86 1010.3
20260903171808 59 94 0.0 2.6 0.00 0.37 0.07 86 1010.3
20260903171737 59 94 0.0 2.6 0.00 0.37 0.07 86 1010.3
20260903171240 59 118 0.9 2.6 0.00 0.37 0.07 86 1010.3
20260903170724 58 88 0.9 2.6 0.00 0.37 0.07 86 1010.4
20260903170229 57 116 0.9 4.3 0.00 0.37 0.07 87 1010.5
20260903165814 57 64 1.7 4.3 0.00 0.37 0.07 88 1010.5
20260903165227 56 92 1.7 4.3 0.00 0.37 0.07 89 1010.4
20260903164730 56 85 1.7 2.6 0.00 0.37 0.07 90 1010.4
20260903164236 56 86 0.0 1.7 0.00 0.37 0.07 92 1010.5
20260903163725 56 101 0.0 0.9 0.00 0.37 0.07 92 1010.5
20260903163310 55 101 0.0 0.9 0.00 0.37 0.07 91 1010.4
20260903163238 55 101 0.0 0.9 0.00 0.37 0.07 91 1010.4
20260903162802 55 101 0.9 1.7 0.00 0.37 0.07 90 1010.4
20260903162225 55 86 0.9 2.6 0.00 0.37 0.07 91 1010.5
20260903161752 55 88 0.9 1.7 0.00 0.37 0.07 92 1010.5
20260903161227 55 36 0.0 0.0 0.00 0.37 0.07 91 1010.6
20260903160734 55 36 0.0 1.7 0.00 0.37 0.07 92 1010.6
20260903160301 55 343 0.0 1.7 0.00 0.37 0.07 91 1010.5
20260903155736 55 36 0.0 1.7 0.00 0.37 0.07 93 1010.5
20260903155224 55 74 0.9 1.7 0.00 0.37 0.07 93 1010.5
20260903154730 54 83 0.0 1.7 0.00 0.37 0.07 93 1010.5
20260903154257 54 66 0.9 1.7 0.00 0.37 0.07 94 1010.4
20260903154226 54 66 0.9 1.7 0.00 0.37 0.07 94 1010.4
20260903153732 54 114 0.0 1.7 0.00 0.37 0.07 95 1010.4
20260903153300 53 119 0.0 1.7 0.00 0.37 0.07 94 1010.4
20260903153229 53 119 0.0 1.7 0.00 0.37 0.07 94 1010.4
20260903152735 53 111 0.0 1.7 0.00 0.37 0.07 94 1010.3
20260903152223 53 130 0.0 1.7 0.00 0.37 0.07 94 1010.4
20260903151810 53 152 0.0 2.6 0.01 0.37 0.07 94 1010.4
20260903151305 53 81 0.0 3.5 0.01 0.37 0.07 95 1010.3
20260903150720 52 90 0.9 1.7 0.01 0.37 0.07 95 1010.3
20260903150307 52 86 0.0 1.7 0.01 0.37 0.07 95 1010.4
20260903150235 52 86 0.0 1.7 0.01 0.37 0.07 95 1010.4
20260903145726 52 88 0.0 3.5 0.01 0.37 0.07 95 1010.3
20260903145254 52 86 1.7 2.6 0.02 0.37 0.07 95 1010.4
20260903145223 52 86 1.7 2.6 0.02 0.37 0.07 95 1010.4
20260903144728 52 80 1.7 2.6 0.02 0.37 0.07 95 1010.2
20260903144235 52 74 0.9 1.7 0.02 0.37 0.07 95 1010.3
20260903143722 52 108 0.0 1.7 0.02 0.37 0.07 95 1010.3
20260903143229 52 130 0.0 1.7 0.02 0.37 0.07 95 1010.2
20260903142736 52 94 0.0 2.6 0.03 0.37 0.07 95 1010.2
20260903142225 52 76 1.7 2.6 0.03 0.37 0.07 95 1010.2
20260903141730 52 93 0.0 1.7 0.02 0.36 0.06 95 1010.2
20260903141237 52 53 0.0 0.0 0.02 0.36 0.06 95 1010.3
20260903140805 52 53 0.0 0.0 0.03 0.36 0.06 95 1010.2
20260903140220 52 53 0.0 0.0 0.03 0.36 0.06 95 1010.2
20260903135731 52 53 0.0 0.0 0.03 0.36 0.06 95 1010.1
20260903135259 52 46 0.0 0.0 0.02 0.35 0.05 95 1010.2
20260903135228 52 46 0.0 0.0 0.02 0.35 0.05 95 1010.2
20260903134733 52 46 0.0 1.7 0.02 0.35 0.05 95 1010.1
20260903134220 52 46 0.0 1.7 0.03 0.35 0.05 95 1010.0
20260903133808 52 46 0.0 1.7 0.03 0.35 0.05 95 1010.0
20260903133223 52 46 0.0 0.0 0.03 0.35 0.05 95 1009.9
20260903132731 52 46 0.0 0.0 0.02 0.34 0.04 95 1009.9
20260903132238 52 46 0.0 0.9 0.02 0.34 0.04 95 1009.9
20260903131725 52 46 0.0 1.7 0.03 0.34 0.04 95 1009.9
20260903131231 52 46 0.0 1.7 0.03 0.34 0.04 95 1009.9
20260903130738 52 254 0.0 0.0 0.02 0.33 0.03 95 1009.8
20260903130306 52 255 0.0 0.0 0.02 0.33 0.03 95 1009.9
20260903125721 52 254 0.0 0.0 0.02 0.33 0.03 95 1009.9
20260903125310 52 255 0.0 0.0 0.02 0.33 0.03 95 1009.9
20260903124727 52 254 0.0 0.0 0.02 0.33 0.03 95 1009.8
20260903124234 52 254 0.0 0.9 0.01 0.32 0.02 95 1009.9
20260903123722 52 255 0.0 1.7 0.01 0.32 0.02 95 1009.9
20260903123228 52 254 0.0 1.7 0.01 0.32 0.02 95 1009.8
20260903122735 52 255 0.0 1.7 0.01 0.32 0.02 95 1009.8
20260903122223 52 255 0.9 1.7 0.01 0.32 0.02 95 1009.8
20260903121809 52 215 0.0 0.0 0.00 0.31 0.01 95 1009.7
20260903121224 52 94 0.0 0.0 0.00 0.31 0.01 95 1009.7
20260903120731 52 93 0.0 0.0 0.00 0.31 0.01 95 1009.5
20260903120258 52 93 0.0 0.0 0.00 0.31 0.01 95 1009.4
20260903120226 52 93 0.0 0.0 0.00 0.31 0.01 95 1009.4
20260903115753 52 94 0.0 0.0 0.00 0.31 0.01 95 1009.3
20260903115229 51 93 0.0 0.0 0.00 0.31 0.01 95 1009.3
20260903114735 52 93 0.0 1.7 0.01 0.31 0.01 95 1009.1
20260903114226 51 93 0.0 1.7 0.01 0.31 0.01 95 1009.1
20260903113733 51 93 0.0 0.0 0.01 0.31 0.01 95 1009.2
20260903113220 51 94 0.0 0.0 0.01 0.31 0.01 95 1009.2
20260903112727 51 94 0.0 0.0 0.01 0.31 0.01 95 1009.2
20260903112236 51 93 0.0 0.0 0.01 0.31 0.01 95 1009.2
20260903111721 51 92 0.0 0.0 0.01 0.31 0.01 95 1009.2
20260903111228 51 92 0.0 0.0 0.01 0.31 0.01 95 1009.3
20260903110735 51 94 0.0 0.0 0.01 0.31 0.01 95 1009.3
20260903110222 51 92 0.0 0.0 0.01 0.31 0.01 95 1009.3
20260903105729 51 93 0.0 0.0 0.01 0.31 0.01 95 1009.2
20260903105258 51 94 0.0 0.0 0.01 0.31 0.01 95 1009.2
20260903104736 51 93 0.0 0.0 0.00 0.30 0.00 95 1009.1
20260903104303 51 93 0.0 0.0 0.00 0.30 0.00 95 1009.1
20260903103738 52 93 0.0 0.0 0.00 0.30 0.00 95 1009.3
20260903103305 51 93 0.0 0.0 0.00 0.30 0.00 95 1009.2
20260903102739 51 93 0.0 0.0 0.00 0.30 0.00 95 1009.2
20260903102227 51 93 0.0 0.0 0.00 0.30 0.00 95 1009.2
20260903101733 51 94 0.0 0.0 0.00 0.30 0.00 95 1009.2
20260903101220 51 93 0.0 0.0 0.00 0.30 0.00 95 1009.2
20260903100808 52 93 0.0 0.9 0.00 0.30 0.00 95 1009.2
20260903100223 52 93 0.0 1.7 0.00 0.30 0.00 95 1009.2
20260903095730 52 93 0.9 0.9 0.00 0.30 0.00 95 1009.1
20260903095238 52 93 0.0 0.0 0.00 0.30 0.00 95 1009.2
20260903094724 52 93 0.0 0.0 0.00 0.30 0.00 95 1009.2
20260903094234 52 93 0.0 1.7 0.00 0.30 0.00 95 1009.1
20260903093721 52 93 0.0 1.7 0.00 0.30 0.00 95 1009.1
20260903093228 52 93 0.0 1.7 0.00 0.30 0.00 95 1009.1
20260903092735 52 93 0.0 0.9 0.00 0.30 0.00 95 1009.1
20260903092223 52 94 0.0 0.0 0.00 0.30 0.00 95 1009.2
20260903091729 52 93 0.0 0.0 0.00 0.31 0.00 95 1009.2
20260903091236 51 93 0.0 0.0 0.00 0.31 0.00 95 1009.2
20260903090803 51 93 0.0 0.0 0.00 0.31 0.00 95 1009.1
20260903090238 51 93 0.0 0.0 0.01 0.31 0.00 95 1009.0
20260903085725 51 93 0.0 0.0 0.01 0.31 0.00 95 1009.1
20260903085253 51 93 0.0 0.0 0.01 0.31 0.00 95 1009.1
20260903084727 51 92 0.0 0.0 0.01 0.31 0.00 95 1009.1
20260903084238 51 93 0.0 0.0 0.01 0.31 0.00 95 1009.0
20260903083725 51 93 0.0 0.0 0.01 0.31 0.00 95 1009.1
20260903083232 51 92 0.0 0.0 0.01 0.31 0.00 95 1009.1
20260903082738 52 93 0.0 0.0 0.01 0.31 0.00 95 1009.1
20260903082306 52 93 0.0 0.0 0.01 0.31 0.00 95 1009.0
20260903081720 52 92 0.0 0.0 0.01 0.31 0.31 95 1009.1
20260903081227 51 93 0.0 0.0 0.01 0.31 0.31 95 1009.1
20260903080734 52 93 0.0 0.0 0.00 0.30 0.30 95 1009.1
20260903080221 51 93 0.0 0.0 0.00 0.30 0.30 95 1009.1
20260903075728 51 93 0.0 0.0 0.00 0.30 0.30 95 1009.1
20260903075256 51 93 0.0 0.0 0.00 0.30 0.30 95 1009.1
20260903074730 51 93 0.0 0.0 0.00 0.30 0.30 95 1009.1
20260903074220 51 93 0.0 0.0 0.00 0.30 0.30 95 1009.1
20260903073727 51 93 0.0 0.0 0.00 0.30 0.30 94 1009.1
20260903073229 51 93 0.0 0.0 0.00 0.30 0.30 94 1009.0
20260903072736 52 93 0.0 0.0 0.00 0.30 0.30 94 1009.0
20260903072224 52 93 0.0 0.0 0.00 0.30 0.30 94 1008.9
20260903071730 52 93 0.0 0.0 0.00 0.30 0.30 94 1008.8
20260903071257 52 94 0.0 0.0 0.00 0.30 0.30 94 1008.8
20260903070733 52 93 0.0 0.0 0.00 0.30 0.30 94 1008.7
20260903070301 52 93 0.0 0.0 0.00 0.30 0.30 95 1008.8
20260903065736 52 92 0.0 0.0 0.00 0.30 0.30 95 1008.7
20260903065224 53 93 0.0 0.0 0.00 0.30 0.30 95 1008.8
20260903064729 53 94 0.0 0.0 0.00 0.30 0.30 95 1008.8
20260903064257 53 93 0.0 0.0 0.00 0.30 0.30 95 1008.8
20260903063736 53 93 0.0 0.0 0.00 0.30 0.30 95 1008.7
20260903063303 53 93 0.0 0.0 0.00 0.30 0.30 95 1008.7
20260903062738 52 94 0.0 0.0 0.00 0.30 0.30 95 1008.8
20260903062227 52 93 0.0 0.0 0.00 0.30 0.30 95 1008.7
20260903061733 52 92 0.0 0.0 0.00 0.30 0.30 95 1008.8
20260903061301 52 93 0.0 0.0 0.00 0.30 0.30 94 1008.8
20260903060736 52 93 0.0 0.0 0.00 0.30 0.30 94 1008.8
20260903060223 52 93 0.0 0.0 0.00 0.30 0.30 94 1008.7
20260903055811 52 93 0.0 0.0 0.00 0.30 0.30 94 1008.8
20260903055307 53 93 0.0 0.0 0.00 0.30 0.30 94 1008.7
20260903055235 53 93 0.0 0.0 0.00 0.30 0.30 94 1008.7
20260903054802 53 93 0.0 0.0 0.00 0.30 0.30 94 1008.8
20260903054730 53 93 0.0 0.0 0.00 0.30 0.30 94 1008.8
20260903054257 53 93 0.0 0.0 0.00 0.30 0.30 94 1008.8
20260903054225 53 93 0.0 0.0 0.00 0.30 0.30 94 1008.8
20260903053732 53 94 0.0 0.0 0.00 0.30 0.30 94 1008.8
20260903053300 53 93 0.0 0.0 0.00 0.30 0.30 94 1008.8
20260903052735 53 93 0.0 0.0 0.00 0.30 0.30 94 1008.8
20260903052306 53 93 0.0 0.0 0.00 0.30 0.30 94 1008.7
20260903051759 53 93 0.0 0.0 0.00 0.30 0.30 94 1008.6
20260903051234 53 93 0.0 0.0 0.00 0.30 0.30 94 1008.6
20260903050721 53 93 0.0 0.0 0.00 0.30 0.30 94 1008.7
20260903050228 53 93 0.0 0.0 0.00 0.30 0.30 94 1008.6
20260903045739 54 93 0.0 0.0 0.00 0.30 0.30 94 1008.6
20260903045228 54 93 0.0 0.0 0.00 0.30 0.30 94 1008.5
20260903044753 54 93 0.0 0.0 0.00 0.30 0.30 94 1008.6
20260903044229 54 93 0.0 0.0 0.00 0.30 0.30 94 1008.7
20260903043735 54 94 0.0 0.0 0.00 0.30 0.30 94 1008.6
20260903043222 54 94 0.0 0.0 0.00 0.30 0.30 94 1008.5
20260903042729 54 93 0.0 0.0 0.00 0.30 0.30 93 1008.7
20260903042237 54 93 0.0 0.0 0.00 0.30 0.30 93 1008.6
20260903041723 55 93 0.0 0.0 0.00 0.30 0.30 93 1008.5
20260903041230 55 93 0.0 0.0 0.00 0.30 0.30 93 1008.4
20260903040721 55 93 0.0 0.0 0.00 0.30 0.30 93 1008.5
20260903040228 55 93 0.0 0.0 0.00 0.30 0.30 94 1008.5
20260903035735 55 93 0.0 0.0 0.00 0.30 0.30 93 1008.5
20260903035223 55 93 0.0 0.0 0.00 0.30 0.30 94 1008.3
20260903034729 56 93 0.0 0.9 0.00 0.30 0.30 94 1008.4
20260903034258 56 93 0.0 0.9 0.00 0.30 0.30 94 1008.2
20260903034226 56 93 0.0 0.9 0.00 0.30 0.30 94 1008.2
20260903033732 56 93 0.0 1.7 0.00 0.30 0.30 94 1008.2
20260903033239 56 93 0.0 1.7 0.00 0.30 0.30 93 1008.0
20260903032806 56 93 0.0 0.0 0.00 0.30 0.30 93 1007.9
20260903032734 56 93 0.0 0.0 0.00 0.30 0.30 93 1007.9
20260903032222 56 93 0.0 0.0 0.00 0.30 0.30 93 1007.8
20260903031728 56 93 0.0 0.0 0.00 0.30 0.30 93 1007.8
20260903031235 56 93 0.0 2.6 0.00 0.30 0.30 93 1007.7
20260903030726 56 93 0.0 2.6 0.00 0.30 0.30 94 1007.7
20260903030233 57 66 0.0 0.9 0.00 0.30 0.30 93 1007.7
20260903025800 56 65 0.9 1.7 0.00 0.30 0.30 93 1007.8
20260903025236 56 65 0.0 1.7 0.00 0.30 0.30 93 1007.7
20260903024722 57 65 0.0 1.7 0.00 0.30 0.30 93 1007.7
20260903024229 57 100 0.0 0.0 0.00 0.30 0.30 92 1007.5
20260903023736 57 99 0.0 0.9 0.00 0.30 0.30 92 1007.5
20260903023223 57 99 0.0 1.7 0.00 0.30 0.30 92 1007.5
20260903022811 57 99 0.0 1.7 0.00 0.30 0.30 92 1007.4
20260903022227 57 99 0.0 1.7 0.00 0.30 0.30 91 1007.5
20260903021733 57 100 0.0 1.7 0.00 0.30 0.30 91 1007.4
20260903021220 58 99 0.0 1.7 0.00 0.30 0.30 90 1007.4
20260903020731 58 89 0.0 5.2 0.00 0.30 0.30 90 1007.3
20260903020237 58 196 0.9 5.2 0.01 0.30 0.30 90 1007.4
20260903015724 59 107 1.7 2.6 0.01 0.30 0.30 92 1007.4
20260903015232 59 88 0.0 1.7 0.02 0.30 0.30 92 1007.3
20260903014758 59 76 0.0 1.7 0.03 0.30 0.30 92 1007.3
20260903014726 59 76 0.0 1.7 0.03 0.30 0.30 92 1007.3
20260903014233 59 30 0.9 1.7 0.04 0.30 0.30 91 1007.2
20260903013720 58 76 0.9 2.6 0.05 0.30 0.30 92 1007.2
20260903013307 58 299 0.0 2.6 0.06 0.30 0.30 92 1007.2
20260903013235 58 299 0.0 2.6 0.06 0.30 0.30 92 1007.2
20260903012803 58 161 0.0 5.2 0.06 0.30 0.30 91 1007.0
20260903012239 58 297 1.7 5.2 0.06 0.30 0.30 91 1006.9
20260903011725 58 88 0.0 5.2 0.06 0.30 0.30 91 1006.7
20260903011232 58 113 1.7 5.2 0.06 0.30 0.30 91 1006.6
20260903010739 58 114 0.9 4.3 0.06 0.30 0.30 91 1006.5
20260903010230 58 124 0.0 1.7 0.05 0.29 0.29 92 1006.5
20260903005737 58 149 0.0 3.5 0.05 0.29 0.29 91 1006.4
20260903005225 58 61 0.9 6.1 0.04 0.28 0.28 91 1006.5
20260903004731 59 163 1.7 6.1 0.03 0.27 0.27 91 1006.5
20260903004238 59 223 2.6 6.1 0.02 0.26 0.26 92 1006.4
20260903003725 59 210 0.9 6.1 0.01 0.25 0.25 93 1006.4
20260903003232 59 10 0.9 6.1 0.00 0.24 0.24 93 1006.3
20260903002759 59 20 0.9 3.5 0.00 0.24 0.24 93 1006.2
20260903002727 59 20 0.9 3.5 0.00 0.24 0.24 93 1006.2
20260903002235 59 259 1.7 3.5 0.00 0.24 0.24 93 1005.8
20260903001802 59 323 0.9 1.7 0.01 0.24 0.24 93 1005.5
20260903001729 59 323 0.9 1.7 0.01 0.24 0.24 93 1005.5
20260903001257 59 96 0.0 1.7 0.01 0.24 0.24 92 1005.6
20260903000732 59 105 0.0 1.7 0.02 0.24 0.24 92 1005.4
20260903000241 59 121 0.0 3.5 0.03 0.24 0.24 93 1005.5
20260902235807 59 99 0.9 2.6 0.04 0.24 0.24 92 1005.5
20260902235228 59 82 1.7 2.6 0.05 0.24 0.24 92 1005.5
20260902234733 59 69 0.9 2.6 0.05 0.24 0.24 92 1005.5
20260902234220 59 79 0.9 3.5 0.06 0.24 0.24 92 1005.5
20260902233807 59 86 0.0 2.6 0.07 0.24 0.24 92 1005.6
20260902233735 59 86 0.0 2.6 0.07 0.24 0.24 92 1005.6
20260902233222 59 71 0.9 3.5 0.08 0.24 0.24 92 1005.6
20260902232729 59 57 0.9 3.5 0.08 0.24 0.24 92 1005.5
20260902232237 59 69 0.9 3.5 0.09 0.24 0.24 92 1005.6
20260902231723 59 84 1.7 3.5 0.09 0.23 0.23 92 1005.7
20260902231231 59 64 1.7 4.3 0.09 0.23 0.23 91 1005.8
20260902230738 59 73 0.0 4.3 0.09 0.22 0.22 91 1005.9
20260902230305 59 69 0.9 2.6 0.09 0.21 0.21 91 1006.1
20260902230233 59 69 0.9 2.6 0.09 0.21 0.21 91 1006.1
20260902225735 59 87 0.9 1.7 0.09 0.20 0.20 92 1006.1
20260902225306 59 78 0.9 1.7 0.08 0.19 0.19 91 1006.1
20260902224721 60 236 0.0 1.7 0.09 0.19 0.19 91 1006.2
20260902224305 60 103 0.0 1.7 0.09 0.18 0.18 90 1006.1
20260902223723 60 66 0.0 2.6 0.08 0.17 0.17 90 1005.9
20260902223307 60 68 0.9 2.6 0.07 0.16 0.16 90 1005.7
20260902222741 60 101 0.0 1.7 0.08 0.16 0.16 90 1005.7
20260902222306 60 84 0.0 1.7 0.07 0.15 0.15 90 1005.8
20260902221739 60 87 0.0 1.7 0.07 0.14 0.14 89 1005.8
20260902221223 60 62 0.9 1.7 0.07 0.14 0.14 89 1005.9
20260902220808 61 327 0.0 0.0 0.07 0.13 0.13 89 1006.0
20260902220736 61 327 0.0 0.0 0.07 0.13 0.13 89 1006.0
20260902220300 61 327 0.0 0.0 0.06 0.12 0.12 87 1006.1
20260902220228 61 327 0.0 0.0 0.06 0.12 0.12 87 1006.1
20260902215732 61 327 0.0 0.0 0.05 0.11 0.11 87 1006.0
20260902215257 61 331 0.0 0.0 0.05 0.10 0.10 87 1006.0
20260902215225 61 331 0.0 0.0 0.05 0.10 0.10 87 1006.0
20260902214729 61 331 0.0 0.0 0.05 0.10 0.10 88 1006.0
20260902214222 62 314 0.0 0.0 0.04 0.09 0.09 85 1006.1
20260902213729 62 9 0.0 1.7 0.04 0.09 0.09 86 1006.2
20260902213256 62 18 0.0 1.7 0.03 0.08 0.08 84 1006.1
20260902213224 62 18 0.0 1.7 0.03 0.08 0.08 84 1006.1
20260902212751 62 18 0.0 1.7 0.03 0.08 0.08 84 1006.1
20260902212228 62 355 0.0 1.7 0.03 0.08 0.08 84 1006.2
20260902211754 62 355 0.9 2.6 0.02 0.07 0.07 82 1006.0
20260902211230 62 236 0.9 1.7 0.02 0.07 0.07 82 1006.1
20260902210753 63 298 0.0 1.7 0.01 0.06 0.06 82 1006.1
20260902210228 63 142 0.0 1.7 0.01 0.06 0.06 82 1006.0
20260902205735 63 339 0.0 1.7 0.01 0.06 0.06 81 1006.1
20260902205227 64 309 0.9 3.5 0.00 0.05 0.05 79 1006.1
20260902204728 64 338 0.9 3.5 0.00 0.05 0.05 78 1006.2
20260902204235 65 144 0.9 2.6 0.01 0.05 0.05 83 1006.2
20260902203722 64 19 0.0 2.6 0.03 0.05 0.05 82 1006.2
20260902203309 64 9 0.0 2.6 0.04 0.05 0.05 79 1006.1
20260902202724 64 212 0.0 1.7 0.04 0.05 0.05 80 1006.0
20260902202232 64 116 0.0 1.7 0.04 0.05 0.05 79 1006.1
20260902201305 64 84 0.0 1.7 0.04 0.05 0.05 82 1006.0
20260902200720 64 84 0.9 1.7 0.04 0.05 0.05 81 1006.2
20260902200227 64 73 0.9 1.7 0.04 0.05 0.05 84 1006.2
20260902195734 63 68 0.0 1.7 0.04 0.05 0.05 84 1006.3
20260902195226 63 62 0.9 1.7 0.04 0.05 0.05 84 1006.3
20260902194732 63 355 0.9 2.6 0.04 0.05 0.05 84 1006.3
20260902194239 63 292 0.9 5.2 0.03 0.04 0.04 79 1006.4
20260902193806 64 339 0.9 12.2 0.01 0.02 0.02 73 1006.6
20260902193220 67 229 4.3 12.2 0.00 0.01 0.01 63 1006.4
20260902192727 69 241 0.9 2.6 0.00 0.01 0.01 57 1006.5
20260902192255 69 165 0.0 3.5 0.00 0.01 0.01 56 1006.3